Regional Weather Roundup
Issued by NWS State College, PA

Home | Current Version | Previous Version | Text Only | Print | Product List | Glossary On
Versions: 1 2 3 4 5 6 7 8 9 10 11 12 13 14 15 16 17 18 19 20 21 22 23 24 25 26 27 28 29 30 31 32 33 34 35 36 37 38 39 40 41 42 43 44 45 46 47 48 49 50
675
ASUS41 KCTP 220410
RWRCTP

REGIONAL WEATHER ROUNDUP
NATIONAL WEATHER SERVICE STATE COLLEGE PA
1200 AM EDT SUN OCT 22 2017

Note: "fair" indicates few or no clouds below 12,000 feet with no
significant weather and/or obstructions to visibility.

* = STATION THAT DOES NOT REPORT PRECIPITATION /E.G. RAIN...SNOW...ETC/
    THUNDER OR FOG.

PAZ002>004-007>009-013>016-020>023-029>032-220500-
WESTERN PENNSYLVANIA

CITY           SKY/WX    TMP DP  RH WIND       PRES   REMARKS
ERIE           PTCLDY    62  50  64 S10       30.22S
MEADVILLE      PTCLDY    61  51  70 CALM      30.26F
FRANKLIN*      PTCLDY    59  47  64 SE8       30.28F
NEW CASTLE     FAIR      52  52 100 CALM      30.26F FOG
BEAVER COUNTY  NOT AVBL
BUTLER*        CLEAR     56  50  80 SE5       30.28F
PITTSBURGH INT PTCLDY    57  53  86 CALM      30.27F
PITTSBURGH     CLEAR     61  50  67 S7        30.27F
INDIANA*       CLEAR     61  48  63 S8        30.32F
LATROBE        CLEAR     55  48  76 S3        30.29F
WASHINGTON CO* CLEAR     52  50  93 CALM      30.30F
$$

PAZ004>006-010>012-017>019-024>028-033>037-041-042-045-046-049>053-220500-
CENTRAL PENNSYLVANIA

CITY           SKY/WX    TMP DP  RH WIND       PRES   REMARKS
BRADFORD       CLOUDY    56  41  57 SE7       30.31F
DUBOIS         PTCLDY    57  41  55 SE8       30.31S
CLEARFIELD     PTCLDY    51  44  77 N6        30.33F
JOHNSTOWN      PTCLDY    57  44  62 S5        30.34F
ALTOONA        PTCLDY    60  43  53 CALM      30.34F
STATE COLLEGE  PTCLDY    54  45  70 CALM      30.34F
WILLIAMSPORT   CLEAR     49  47  93 CALM      30.35S
SELINSGROVE    CLEAR     45  45 100 CALM      30.36S
FT INDIANTOWN  NOT AVBL
CAPITAL CITY   CLEAR     52  47  83 CALM      30.35F
HARRISBURG     PTCLDY    50  48  93 E3        30.35S
YORK           CLEAR     48  44  86 CALM      30.35F
$$

PAZ038>040-043-044-047-048-054-055-060>062-067>071-220500-
EASTERN PENNSYLVANIA

CITY           SKY/WX    TMP DP  RH WIND       PRES   REMARKS
SCRANTON       CLEAR     52  43  71 E5        30.36F
MOUNT POCONO   CLEAR     42  39  89 CALM      30.39S
ALLENTOWN      CLEAR     51  45  79 NW3       30.37R
QUAKERTOWN*    CLEAR     46  45  93 CALM      30.38S
READING        CLEAR     52  49  89 CALM      30.36S
LANCASTER      CLEAR     54  47  77 CALM      30.36S
COATESVILLE    CLEAR     54  46  76 CALM      30.38S
POTTSTOWN      CLEAR     48  45  89 CALM      30.38S
BLUE BELL      CLEAR     43  43 100 CALM      30.38S
DOYLESTOWN     CLEAR     51  46  83 CALM      30.36S
WILLOW GROVE   NOT AVBL
NORTH PHILA    CLEAR     55  48  77 CALM      30.38S
PHILADELPHIA   PTCLDY    59  48  67 S3        30.37S
$$




USA.gov is the U.S. government's official web portal to all federal, state and local government web resources and services.